Kokomo, IN

3:39 PM EDT on July 25, 2017 (GMT -0400)
Kokomo Municipal

Weather History for KOKK - January, 2012

Change the Weather History Date:

Tuesday, January 24, 2012

  Actual Average (KGUS) Record (KGUS)
Temperature  
Mean Temperature 32 °F -  
Max Temperature 35 °F 29 °F 41 °F (2017)
Min Temperature 28 °F 16 °F -13 °F (2000)
Degree Days  
Heating Degree Days 34    
Moisture  
Dew Point 20 °F    
Average Humidity 63    
Maximum Humidity 74    
Minimum Humidity 60    
Precipitation  
Precipitation 0.00 in - - ()
Sea Level Pressure  
Sea Level Pressure 30.16 in    
Wind  
Wind Speed 15 mph (West)    
Max Wind Speed 21 mph    
Max Gust Speed 28 mph    
Visibility 10 miles    
Events      
Averages and records for this station are not official NWS values.
T = Trace of Precipitation, MM = Missing Value Source: NWS Daily Summary

Daily Weather History Graph

Daily Weather History Graph

Search for Another Location

Airport or City:

Trip Planner

Search our weather history database for the weather conditions in past years. The results will help you decide how hot, cold, wet, or windy it might be!

Date:

Astronomy

Jan. 24, 2012 Rise Set
Actual Time 7:00 AM CST 4:52 PM CST
Civil Twilight 6:31 AM CST 5:21 PM CST
Nautical Twilight 5:58 AM CST 5:54 PM CST
Astronomical Twilight 5:25 AM CST 6:27 PM CST
Moon 7:29 AM CST (1/24) 6:43 PM CST (1/24)
Length of Visible Light 10h 50m
Length of Day
9h 51m
New Moon, 2% of the Moon is Illuminated
Jan 24
New Moon
Jan 30
First Quarter
Feb 7
Full
Feb 14
Last Quarter
Feb 21
New

Hourly Weather History & Observations

Time (CST) Temp. Windchill Dew Point Humidity Pressure Visibility Wind Dir Wind Speed Gust Speed Precip Events Conditions
12:15 AM 33.8 °F 23.9 °F 23.0 °F 65% 29.96 in 9.0 mi WSW 15.0 mph - N/A   Overcast
12:35 AM 33.8 °F 22.8 °F 23.0 °F 65% 29.96 in 10.0 mi West 18.4 mph 24.2 mph N/A   Overcast
12:55 AM 32.0 °F 20.1 °F 21.2 °F 64% 29.97 in 9.0 mi West 19.6 mph 25.3 mph N/A   Overcast
1:15 AM 32.0 °F 20.5 °F 21.2 °F 64% 29.97 in 10.0 mi West 18.4 mph 25.3 mph N/A   Overcast
1:35 AM 32.0 °F 22.1 °F 21.2 °F 64% 29.97 in 10.0 mi WNW 13.8 mph - N/A   Overcast
2:35 AM 32.0 °F 20.5 °F 21.2 °F 64% 29.99 in 10.0 mi West 18.4 mph 27.6 mph N/A   Overcast
2:55 AM 30.2 °F 17.4 °F 19.4 °F 64% 30.00 in 10.0 mi West 20.7 mph 26.5 mph N/A   Overcast
3:15 AM 30.2 °F 18.5 °F 19.4 °F 64% 30.00 in 10.0 mi West 17.3 mph 20.7 mph N/A   Overcast
3:35 AM 30.2 °F 19.8 °F 19.4 °F 64% 30.00 in 10.0 mi WNW 13.8 mph - N/A   Overcast
4:15 AM 30.2 °F 18.9 °F 19.4 °F 64% 30.01 in 10.0 mi WNW 16.1 mph 19.6 mph N/A   Overcast
4:35 AM 30.2 °F 19.3 °F 19.4 °F 64% 30.02 in 10.0 mi WNW 15.0 mph - N/A   Overcast
4:55 AM 30.2 °F 19.3 °F 19.4 °F 64% 30.04 in 10.0 mi West 15.0 mph - N/A   Overcast
5:15 AM 30.2 °F 18.9 °F 19.4 °F 64% 30.05 in 10.0 mi West 16.1 mph 20.7 mph N/A   Overcast
5:35 AM 30.2 °F 19.3 °F 19.4 °F 64% 30.06 in 10.0 mi West 15.0 mph - N/A   Overcast
5:55 AM 30.2 °F 18.1 °F 19.4 °F 64% 30.06 in 10.0 mi West 18.4 mph - N/A   Overcast
6:15 AM 30.2 °F 18.9 °F 19.4 °F 64% 30.07 in 10.0 mi WNW 16.1 mph - N/A   Overcast
6:35 AM 30.2 °F 18.1 °F 19.4 °F 64% 30.08 in 10.0 mi West 18.4 mph 21.9 mph N/A   Overcast
6:55 AM 30.2 °F 18.5 °F 19.4 °F 64% 30.09 in 10.0 mi West 17.3 mph 24.2 mph N/A   Overcast
7:15 AM 30.2 °F 18.5 °F 19.4 °F 64% 30.10 in 10.0 mi West 17.3 mph - N/A   Overcast
7:35 AM 30.2 °F 18.9 °F 19.4 °F 64% 30.11 in 10.0 mi WNW 16.1 mph 19.6 mph N/A   Overcast
7:55 AM 30.2 °F 18.9 °F 19.4 °F 64% 30.12 in 10.0 mi West 16.1 mph 21.9 mph N/A   Overcast
8:15 AM 30.2 °F 17.8 °F 19.4 °F 64% 30.13 in 10.0 mi West 19.6 mph - N/A   Overcast
8:35 AM 30.2 °F 18.1 °F 19.4 °F 64% 30.14 in 10.0 mi WNW 18.4 mph 26.5 mph N/A   Overcast
8:55 AM 30.2 °F 18.9 °F 17.6 °F 60% 30.16 in 10.0 mi WNW 16.1 mph - N/A   Overcast
9:15 AM 30.2 °F 18.5 °F 19.4 °F 64% 30.17 in 10.0 mi WNW 17.3 mph - N/A   Overcast
9:35 AM 30.2 °F 17.4 °F 19.4 °F 64% 30.17 in 10.0 mi WNW 20.7 mph 26.5 mph N/A   Overcast
10:15 AM 30.2 °F 18.1 °F 19.4 °F 64% 30.19 in 10.0 mi WNW 18.4 mph - N/A   Overcast
10:35 AM 30.2 °F 18.1 °F 19.4 °F 64% 30.19 in 10.0 mi WNW 18.4 mph - N/A   Overcast
10:55 AM 30.2 °F 20.2 °F 19.4 °F 64% 30.19 in 10.0 mi West 12.7 mph - N/A   Mostly Cloudy
11:15 AM 33.8 °F 23.9 °F 21.2 °F 60% 30.19 in 10.0 mi West 15.0 mph - N/A   Scattered Clouds
11:35 AM 32.0 °F 22.1 °F 21.2 °F 64% 30.18 in 10.0 mi West 13.8 mph - N/A   Mostly Cloudy
11:55 AM 32.0 °F 23.0 °F 19.4 °F 60% 30.18 in 10.0 mi West 11.5 mph - N/A   Overcast
12:35 PM 32.0 °F 22.5 °F 19.4 °F 60% 30.19 in 10.0 mi West 12.7 mph - N/A   Overcast
1:15 PM 33.8 °F 24.8 °F 21.2 °F 60% 30.20 in 10.0 mi West 12.7 mph 18.4 mph N/A   Overcast
1:35 PM 33.8 °F 24.8 °F 21.2 °F 60% 30.20 in 10.0 mi West 12.7 mph 17.3 mph N/A   Overcast
1:55 PM 33.8 °F 23.9 °F 21.2 °F 60% 30.21 in 10.0 mi West 15.0 mph - N/A   Overcast
2:15 PM 33.8 °F 24.3 °F 21.2 °F 60% 30.22 in 10.0 mi West 13.8 mph - N/A   Overcast
2:35 PM 33.8 °F 25.3 °F 21.2 °F 60% 30.23 in 10.0 mi West 11.5 mph - N/A   Overcast
2:55 PM 33.8 °F 23.9 °F 21.2 °F 60% 30.24 in 10.0 mi West 15.0 mph 18.4 mph N/A   Overcast
3:15 PM 33.8 °F 24.8 °F 21.2 °F 60% 30.25 in 10.0 mi West 12.7 mph - N/A   Overcast
3:35 PM 35.6 °F 26.2 °F 23.0 °F 60% 30.26 in 10.0 mi West 15.0 mph - N/A   Overcast
3:55 PM 33.8 °F 24.3 °F 21.2 °F 60% 30.26 in 10.0 mi West 13.8 mph - N/A   Overcast
4:15 PM 33.8 °F 24.8 °F 21.2 °F 60% 30.27 in 10.0 mi West 12.7 mph - N/A   Overcast
4:55 PM 33.8 °F 25.3 °F 21.2 °F 60% 30.27 in 10.0 mi WNW 11.5 mph - N/A   Overcast
5:15 PM 33.8 °F 27.7 °F 21.2 °F 60% 30.27 in 10.0 mi WNW 6.9 mph - N/A   Overcast
5:35 PM 33.8 °F 28.6 °F 21.2 °F 60% 30.28 in 10.0 mi West 5.8 mph - N/A   Overcast
5:55 PM 33.8 °F 28.6 °F 21.2 °F 60% 30.28 in 10.0 mi West 5.8 mph - N/A   Overcast
6:15 PM 32.0 °F 28.7 °F 21.2 °F 64% 30.28 in 10.0 mi West 3.5 mph - N/A   Mostly Cloudy
6:35 PM 30.2 °F 25.4 °F 21.2 °F 69% 30.28 in 10.0 mi WSW 4.6 mph - N/A   Partly Cloudy
6:55 PM 30.2 °F 25.4 °F 19.4 °F 64% 30.29 in 10.0 mi West 4.6 mph - N/A   Clear
7:15 PM 30.2 °F 26.7 °F 21.2 °F 69% 30.30 in 10.0 mi WSW 3.5 mph - N/A   Clear
7:35 PM 28.4 °F 23.3 °F 19.4 °F 69% 30.31 in 10.0 mi SW 4.6 mph - N/A   Clear
7:55 PM 28.4 °F 22.2 °F 21.2 °F 74% 30.31 in 10.0 mi WSW 5.8 mph - N/A   Clear
8:15 PM 28.4 °F 22.2 °F 19.4 °F 69% 30.32 in 10.0 mi WSW 5.8 mph - N/A   Clear
8:35 PM 28.4 °F 21.2 °F 21.2 °F 74% 30.32 in 10.0 mi WSW 6.9 mph - N/A   Clear
9:35 PM 28.4 °F 22.2 °F 19.4 °F 69% 30.32 in 10.0 mi WSW 5.8 mph - N/A   Clear
9:55 PM 28.4 °F 23.3 °F 19.4 °F 69% 30.31 in 10.0 mi SW 4.6 mph - N/A   Clear
10:15 PM 28.4 °F 23.3 °F 19.4 °F 69% 30.31 in 10.0 mi SW 4.6 mph - N/A   Clear
10:35 PM 28.4 °F 23.3 °F 19.4 °F 69% 30.30 in 10.0 mi SSW 4.6 mph - N/A   Clear
10:55 PM 26.6 °F - 19.4 °F 74% 30.30 in 10.0 mi Calm Calm - N/A   Clear
11:15 PM 26.6 °F 20.0 °F 17.6 °F 69% 30.32 in 10.0 mi SW 5.8 mph - N/A   Clear
11:35 PM 28.4 °F 21.2 °F 19.4 °F 69% 30.34 in 10.0 mi SW 6.9 mph - N/A   Clear
11:55 PM 28.4 °F 23.3 °F 19.4 °F 69% 30.32 in 10.0 mi WSW 4.6 mph - N/A   Clear